Location: Unnamed
(51.8936°N, 11.0665°E)
Time: 14:29:39
(UTC+02:00)

BEESAT 3 - Visible Passes

Search period start: 21 September 2021 00:00
Search period end: 01 October 2021 00:00
Orbit: 484 x 509 km, 64.9° (Epoch: 21 September)

Date Brightness Start Highest point End Pass type
(mag) Time Alt. Az. Time Alt. Az. Time Alt. Az.
21 Sep ? 21:10:03 10° NW 21:11:52 13° N 21:13:43 10° NNE visible
21 Sep ? 22:48:23 10° NNW 22:50:09 14° N 22:50:09 14° N visible
22 Sep ? 20:48:01 10° NW 20:49:55 13° N 20:51:49 10° NNE visible
22 Sep ? 22:26:30 10° NNW 22:28:37 14° NNE 22:28:37 14° NNE visible
23 Sep ? 20:25:59 10° NW 20:27:57 13° N 20:29:55 10° NNE visible
23 Sep ? 22:04:36 10° NNW 22:06:41 14° NNE 22:07:07 14° NNE visible
23 Sep ? 23:41:27 10° NNW 23:41:41 11° NNW 23:41:41 11° NNW visible
24 Sep ? 20:03:56 10° NW 20:05:58 14° NNW 20:08:01 10° NNE visible
24 Sep ? 21:42:42 10° NNW 21:44:43 14° NNE 21:45:37 13° NNE visible
24 Sep ? 23:19:34 10° NNW 23:20:10 13° NNW 23:20:10 13° NNW visible
25 Sep ? 19:41:53 10° NW 19:43:59 14° NNW 19:46:07 10° NNE visible
25 Sep ? 21:20:48 10° NNW 21:22:44 13° N 21:24:07 11° NNE visible
25 Sep ? 22:57:41 10° NNW 22:58:41 16° NNW 22:58:41 16° NNW visible
26 Sep ? 20:58:53 10° NNW 21:00:44 13° N 21:02:37 10° NE visible
26 Sep ? 22:35:49 10° NNW 22:37:11 18° NNW 22:37:11 18° NNW visible
27 Sep ? 20:36:57 10° NNW 20:38:45 13° N 20:40:33 10° NE visible
27 Sep ? 22:13:55 10° NNW 22:15:43 20° N 22:15:43 20° N visible
28 Sep ? 20:15:00 10° NNW 20:16:45 13° N 20:18:30 10° NNE visible
28 Sep ? 21:52:01 10° NNW 21:54:15 22° N 21:54:15 22° N visible
29 Sep ? 19:53:02 10° NNW 19:54:44 12° N 19:56:27 10° NNE visible
29 Sep ? 21:30:07 10° NNW 21:32:47 22° NNE 21:32:47 22° NNE visible
29 Sep ? 23:07:03 10° NW 23:07:21 12° NW 23:07:21 12° NW visible
30 Sep ? 19:31:03 10° NNW 19:32:43 12° N 19:34:24 10° NNE visible
30 Sep ? 21:08:12 10° NNW 21:11:16 22° NNE 21:11:21 22° NNE visible
30 Sep ? 22:45:06 10° NW 22:45:55 16° NW 22:45:55 16° NW visible
